Regional Weather Roundup
Issued by NWS Grand Forks, ND

Home | Current Version | Previous Version | Text Only | Print | Product List | Glossary Off
Versions: 1 2 3 4 5 6 7 8 9 10 11 12 13 14 15 16 17 18 19 20 21 22 23 24 25 26 27 28 29 30 31 32 33 34 35 36 37 38 39 40 41 42 43 44 45 46 47 48 49 50

579
ASUS43 KFGF 230831
RWRFGF
PRAIRIE TO PINES  WEATHER ROUNDUP
NATIONAL WEATHER SERVICE EASTERN NORTH DAKOTA/GRAND FORKS ND
200 AM CST THU FEB 23 2017

 **SATELLITE DATA USED TO AUGMENT SKY COVER AT AUTOMATED STATIONS**
 *****  WEATHER ACROSS EASTERN NORTH DAKOTA  *****

CITY           SKY/WX    TMP DP  RH WIND       PRES   REMARKS
GRAND FORKS    MOCLDY    28  21  75 N7        29.98S WCI  21
GRAND FRKS AFB MOCLDY    27  23  86 N8        29.99S WCI  18
DEVILS LAKE    FAIR      25  22  88 NW9       29.97S WCI  15
FARGO          FAIR      30  26  85 N12       29.95F WCI  20
WAHPETON ARPT  FAIR      30  27  86 NW7       29.98R WCI  23
$$

 ***** WEATHER ACROSS CENTRAL AND WESTERN NORTH DAKOTA  *****

CITY           SKY/WX    TMP DP  RH WIND       PRES   REMARKS
BISMARCK       FAIR      25  23  92 CALM      30.00S
MINOT          CLOUDY    33  28  81 W5        29.97F
JAMESTOWN      FAIR      25  22  88 NW7       29.97R WCI  17
MINOT AFB      CLOUDY    30  28  90 NW6       29.97F WCI  24
GARRISON       NOT AVBL
WILLISTON      CLOUDY    28  25  88 CALM      30.00S
DICKINSON      CLOUDY    23  21  92 E5        29.95R WCI  17
HETTINGER      CLOUDY    27  25  92 NE8       29.96R WCI  19
$$

 *****  OTHER AIRPORT OBSERVATIONS IN OUR AREA  *****

CITY           SKY/WX    TMP DP  RH WIND       PRES   REMARKS
WALHALLA       NOT AVBL
GRAFTON AIRPOR CLOUDY    28  25  86 N12       30.02S WCI  18
VALLEY CITY AR CLOUDY    25  25 100 NW6       29.99R WCI  18
CANDO          NOT AVBL
CAVALIER APRT    N/A     28  23  80 N7        30.01S WCI  21
GWINNER        FAIR      27  27 100 NW7       29.99R WCI  19
SHEYENNE NWR     N/A     27  24  87 NW3       29.95S
ROLLA          PTSUNNY   19  19 100 NW8       29.99R WCI   9
 ***** THE ABOVE OBSERVATIONS ARE NON NWS ARE NOT QUALITY
       CONTROLLED AND MAY MIS-REPORT RAIN FOR SNOW...
$$

  *****  WEATHER ACROSS NORTHERN MINNESOTA  *****

CITY           SKY/WX    TMP DP  RH WIND       PRES   REMARKS
FLAG ISLAND    FAIR      23  16  74 NW30      29.96R WCI   5
WARROAD        CLOUDY    25  18  74 NW15G24   29.97R WCI  12
ROSEAU         FAIR      25  18  74 N13       29.97R WCI  13
HALLOCK        CLOUDY    27  23  86 N8        30.00S WCI  18
THF RVR FALLS    N/A     23  21  92 MISG        N/A
BAUDETTE       CLOUDY    26  17  68 N12G21    29.92R WCI  16
WASKISH        CLOUDY    25  19  80 NW6       29.94S WCI  18
CROOKSTON      FAIR      28  25  86 NE9       29.99S WCI  20
STEPHEN NDAWN    N/A     27  25  93 N8          N/A  WCI  18
GREENBUSH NDAW   N/A     16  16 100 W5          N/A  WCI   9
$$
  *****  WEATHER ACROSS CENTRAL AND WEST MINNESOTA  *****

CITY           SKY/WX    TMP DP  RH WIND       PRES   REMARKS
FOSSTON        FAIR      25  21  86 N10       29.95S WCI  15
BEMIDJI        MOCLDY    26  21  82 N12       29.92R WCI  15
PARK RAPIDS    FAIR      23  18  81 N7        29.89S WCI  15
ELBOW LAKE     FAIR      29  26  91 W7        29.95R WCI  22
WADENA         FAIR      27  25  93 N6        29.90S WCI  20
DETROIT LAKES  FAIR      28  27  93 N5        29.92S WCI  23
MOORHEAD       FAIR      28  27  93 N13       29.97R WCI  18
FERGUS FALLS   FAIR      28  28 100 N5        29.99R WCI  23
MORRIS MN      FAIR      30  28  93 NW8       29.94R WCI  23
STAPLES        FAIR      25  25 100 N8        29.90S WCI  16
$$
  *****  WEATHER ELSEWHERE ACROSS MINNESOTA  *****

CITY           SKY/WX    TMP DP  RH WIND       PRES   REMARKS
DULUTH         CLOUDY    30  27  88 N9        29.81R WCI  22
INTRNTL FALLS  CLOUDY    26  18  71 NW15      29.90R WCI  14
ELY            CLOUDY    28  23  80 NW5       29.82R WCI  23
CLOQUET        MOCLDY    28  27  93 NW8       29.84R WCI  20
WHEATON        FAIR      28  27  93 NW8       29.98F WCI  20
BRAINERD       NOT AVBL
HIBBING        FAIR      25  24  96 NW15      29.84R WCI  13
ALEXANDRIA     FAIR      29  25  85 N7        29.91R WCI  22
SAINT CLOUD    FAIR      31  27  85 N8        29.89R WCI  23
MINNEAPOLIS    CLOUDY    37  30  75 N15G23    29.85R
$$

  *****  WEATHER ACROSS SOUTH DAKOTA  *****

CITY           SKY/WX    TMP DP  RH WIND       PRES   REMARKS
SIOUX FALLS    CLOUDY    32  29  88 N20G28    29.87S WCI  20
BROOKINGS      CLOUDY    30  25  81 N17G26    29.89F WCI  18
WATERTOWN      FAIR      26  23  88 N10       29.92S WCI  16
HURON          CLOUDY    31  24  75 NE16      29.95F WCI  20
SISSETON         N/A     28  26  92 N12       29.96R WCI  18
ABERDEEN       FAIR      24  21  88 N7        29.98F WCI  16
MITCHELL       CLOUDY    33  28  81 N16       29.92F WCI  23
PIERRE         CLOUDY    31  25  78 NE12      29.96R WCI  22
MOBRIDGE       FAIR      30  24  78 N3        29.96S
RAPID CITY     CLOUDY    30  27  88 N7        29.89F WCI  23
$$

  *****  SOME WEATHER IN NEARBY STATES *****

CITY           SKY/WX    TMP DP  RH WIND       PRES   REMARKS
GLASGOW MT     FAIR      23  21  92 NE3       29.99S
GREAT FALLS MT CLOUDY    29  26  89 N8        29.93S WCI  21
CHEYENNE WY    CLOUDY    29  27  92 E6        29.70F WCI  23
SCOTTSBLUFF NE CLOUDY    34  30  85 NE15G21   29.78R WCI  24
OMAHA NE       FAIR      37  33  85 N8        29.81R
DES MOINES IA  MOCLDY    41  37  86 N18       29.80R
DAVENPORT IA   FAIR      44  41  89 NW9       29.74R
CHICAGO IL     FAIR      55  49  80 SW10      29.65R
EAU CLAIRE WI  CLOUDY    38  33  82 NW10      29.77R
LA CROSSE WI   FAIR      42  36  79 NW13      29.74R
$$

  *****  SOME NATIONAL WEATHER *****

CITY           SKY/WX    TMP DP  RH WIND       PRES   REMARKS
LA GUARDIA NY  FAIR      44  39  82 NE3       29.88F
RALEIGH NC     CLOUDY    57  52  83 SE3       29.92F
ATLANTA GA     FAIR      56  55  97 E8        29.86F
NEW ORLEANS LA FAIR      58  57  97 CALM      29.81F
OKLAHOMA CITY  MOCLDY    54  44  69 SE8       29.61F
ALBUQUERQUE NM MOCLDY    46  29  51 SE12      29.77F
SALT LAKE CITY MOCLDY    31  29  92 S5        29.74F
LOS ANGELES CA FAIR      54  33  45 NW10      30.07S
BOISE ID       FAIR      32  27  81 NW17      29.82S WCI  21
SEATTLE WA     CLOUDY    37  34  89 CALM      30.21S
$$

*** WEATHER ACROSS MANITOBA...SASKATCHEWAN AND ONTARIO ***
                ***ONTARIO***

CITY           SKY/WX    TMP DP  RH WIND       PRES   REMARKS
GERALDTON      CLOUDY    28  23  80 NW9       29.71R WCI  20
THUNDER BAY    MOCLDY    30  21  69 NW5       29.77R
SIOUX LOOKOUT  FLURRIES  23  14  68 NW14      29.83R WCI  11
TORONTO        CLOUDY    46  46 100 SE7       29.66F
BIG TROUT LK   LGT SNOW  -2  -6  84 NW13      29.86R WCI -21
PICKLE LAKE    NOT AVBL
DRYDEN         FLURRIES  25  16  68 NW9       29.85R WCI  15
KENORA         CLOUDY    21  14  73 N12       29.92R WCI   9
$$
                *** MANITOBA***

CITY           SKY/WX    TMP DP  RH WIND       PRES   REMARKS
BRANDON        CLOUDY    25  19  80 NE9       30.01R WCI  15
DAUPHIN        FLURRIES  21  14  73 E3        30.06R
ISLAND LAKE    FLURRIES   0  -6  78 NW8       29.99  WCI -15
PILOT MOUND      N/A     25  21  86 E5          N/A  WCI  19
THE PAS        PTCLDY     5  -2  72 N10       30.09S WCI -10
THOMPSON       FLURRIES  -4  -9  77 N10       30.10R WCI -21
WINNIPEG       MOCLDY    25  19  80 N6        30.02  WCI  18
LYNN LAKE      CLOUDY    -4  -9  77 NE9       30.12R WCI -20
CHURCHILL      CLEAR     -9 -13  84 N10       30.23R WCI -28
GILLAM         CLEAR    -13 -18  77 N10       30.09R WCI -32
$$
                ***SASKATCHEWAN***

CITY           SKY/WX    TMP DP  RH WIND       PRES   REMARKS
ESTEVAN        CLOUDY    30  28  93 NW8       29.98S WCI  23
KINDERSLEY     CLOUDY    23  19  86 SW5       30.07R WCI  17
LLOYDMINSTER   FLURRIES  18  14  86 NW6       30.06R WCI   9
PRINCE ALBERT  FLURRIES  19  14  79 S3        30.06S
REGINA         CLOUDY    23  18  80 N13       30.05R WCI  11
YORKTON        FLURRIES  21  16  79 NW9       30.05R WCI  11
N. BATTLEFORD  MOCLDY    23  18  80 NW9       30.08R WCI  13
LA RONGE       FLURRIES  12   7  79 NE6       30.08S WCI   3
SASKATOON      MOCLDY    23  18  80 W6        30.08R WCI  16
SWIFT CURRENT  LGT SNOW  21  21 100 N12       30.02R WCI   9
$$
NOTE: THESE ARE AUTOMATED STATIONS WITH LIMITED QUALITY CONTROL
      "FAIR" INDICATES FEW OR NO CLOUDS BELOW 12,000 FEET WITH NO
      SIGNIFICANT WEATHER AND/OR OBSTRUCTIONS TO VISIBILITY.
      SKY/WX - SKY CONDITION AND SIGNIFICANT WEATHER.
      TMP - AIR TEMPERATURE.    DP   - DEWPOINT TEMPERATURE.
      RH  - RELATIVE HUMIDITY.  PRES - PRESSURE.
      HX  - HEAT INDEX.         WCI  - WIND CHILL INDEX.
$




USA.gov is the U.S. government's official web portal to all federal, state and local government web resources and services.